Honolulu, HI (96801)

10:54 AM HST on August 29, 2015 (GMT -1000)
Pacific Heights | | Change Station
CLOSE
Current Station
Personal Weather Station
Location: Honolulu, HI
Elevation: 528 ft
Nearby Weather Stations

Elev 528 ft 21.33 °N, 157.84 °W | Updated 1 second ago

Scattered Clouds
Scattered Clouds
84.9 °F
Feels Like 92 °F
N
4.0
Wind Variable Wind from ENE
Gusts 9.0 mph

Today
High -- | Low -- °F
--% Chance of Precip.
Yesterday
High -- | Low -- °F
Precip. -- in
6:13 AM 6:50 PM
Full, 100% visible
Pressure 29.91 in
Visibility 10.0 miles
Clouds Few 2300 ft
Scattered Clouds 3300 ft
Scattered Clouds 4900 ft
Heat Index 92 °F
Dew Point 74 °F
Humidity 69%
Rainfall 0.00 in
Snow Depth Not available.
UV 6 out of 12
Pollen Not available.
Air Quality Not available.
Flu Activity Not available.
METAR PHNL 291953Z 07011G17KT 10SM FEW023 SCT033 SCT049 30/23 A2990 RMK AO2 SLP126 VCSH NE AND E T03000228
Pressure 29.91 in
Visibility 10.0 miles
Clouds Few 2300 ft
Scattered Clouds 3300 ft
Scattered Clouds 4900 ft
Heat Index 92 °F
Dew Point 74 °F
Humidity 69%
Rainfall 0.00 in
Snow Depth Not available.
UV 6 out of 12
Pollen Not available.
Air Quality Not available.
Flu Activity Not available.
METAR PHNL 291953Z 07011G17KT 10SM FEW023 SCT033 SCT049 30/23 A2990 RMK AO2 SLP126 VCSH NE AND E T03000228
The busy hurricane season continues as Hurricane Ignacio may threaten The Big Island Monday. Ignacio is expected to strengthen into a Category 2 hurricane later today, before possibly weakening to a Category 1 storm Monday. The most likely scenario is that storm will pass to the north of Hawaii, there is enough difference is guidance to suggest that residents should prepare for the storm.

10-Day Weather Forecast

×

Almanac

Astronomy

Aug. 29, 2015 Rise Set
Actual Time
Civil Twilight
Nautical Twilight
Astronomical Twilight
Moon
Length of Visible Light
Length of Day
Tomorrow will be .
, % of the Moon is Illuminated

Today's Extremes

State Highs State Lows

Community

WunderPhotos

Upload Photos

1,850,793 photos uploaded!

WunderBlogs® & News

Nearby

Air Quality

  Air Quality AQ Index Pollutant
Not available.

Snow Depth

Station Depth Elevation

Earthquake Activity

City Distance Mag. Time & Date
Minimum magnitude displayed is 2.5.

Coastal Water Temperatures

Place Temperature

Stations

Nearby Weather Stations

Station Location Temp. Windchill Dew Point Humidity Wind Precip. Elev Updated Type